This demonstration page uses our WeatherBlox Daily Observations layout. Learn more.

Left ArrowRight Arrow

Hourly Observations for November 25, 2022

Temp ( °F °C ) Dew Point ( °F °C ) Humidity (%) Winds ( mph kmh ) Pressure ( in mb ) Visibility ( mi km ) Precip ( " mm )
12:55 am 00:55 Clear 30 -1.1 25 -3.9 81 81 WNW 7 11 30.38 1029 10 16 0.00 0.00
1:55 am 01:55 Clear 30 -1.3 25 -4 82 82 WNW 7 11 30.39 1029 10 16 0.00 0.00
2:55 am 02:55 Clear 30 -1.2 25 -3.9 82 82 WNW 7 11 30.39 1029 10 16 0.00 0.00
3:55 am 03:55 Clear 28 -2.4 23 -5.1 82 82 Calm 30.39 1029 10 16 0.00 0.00
4:55 am 04:55 Clear 27 -2.9 24 -4.6 88 88 Calm 30.40 1030 10 16 0.00 0.00
5:55 am 05:55 Clear 27 -3 23 -4.9 87 87 WNW 3 6 30.40 1030 10 16 0.00 0.00
6:55 am 06:55 Clear 26 -3.4 22 -5.4 86 86 W 3 6 30.42 1030 10 16 0.00 0.00
7:55 am 07:55 Sunny 26 -3.3 22 -5.6 84 84 W 3 6 30.42 1030 10 16 0.00 0.00
8:55 am 08:55 Sunny 31 -0.6 26 -3.6 80 80 Calm 30.42 1030 10 16 0.00 0.00
9:55 am 09:55 Sunny 37 2.7 28 -2.4 69 69 W 5 7 30.41 1030 10 16 0.00 0.00
10:55 am 10:55 Sunny 42 5.8 30 -1.1 61 61 WSW 5 7 30.40 1029 10 16 0.00 0.00
11:55 am 11:55 Sunny 47 8.3 29 -1.5 50 50 SW 8 13 30.36 1028 10 16 0.00 0.00
12:55 pm 12:55 Sunny 51 10.4 29 -1.6 43 43 Calm 30.32 1027 10 16 0.00 0.00
1:55 pm 13:55 Sunny 54 12 27 -2.6 36 36 SSW 7 11 30.28 1026 10 16 0.00 0.00
2:55 pm 14:55 Sunny 54 12.1 24 -4.5 31 31 S 8 13 30.27 1025 10 16 0.00 0.00
3:55 pm 15:55 Sunny 54 12.3 21 -6.2 27 27 SSW 5 7 30.27 1025 10 16 0.00 0.00
4:55 pm 16:55 Sunny 51 10.7 20 -6.6 29 29 Calm 30.25 1024 10 16 0.00 0.00
5:55 pm 17:55 Clear 44 6.9 20 -6.4 38 38 Calm 30.25 1024 10 16 0.00 0.00
6:55 pm 18:55 Clear 42 5.7 21 -5.9 43 43 S 5 7 30.23 1024 10 16 0.00 0.00
7:55 pm 19:55 Clear 41 4.8 22 -5.3 48 48 S 7 11 30.21 1023 10 16 0.00 0.00
8:55 pm 20:55 Clear 39 4 23 -5 52 52 S 6 9 30.21 1023 10 16 0.00 0.00
9:55 pm 21:55 Clear 39 3.8 24 -4.4 55 55 S 7 11 30.20 1023 10 16 0.00 0.00
10:55 pm 22:55 Clear 32 0.1 22 -5.3 67 67 SSE 5 7 30.18 1022 10 16 0.00 0.00
11:55 pm 23:55 Clear 31 -0.5 22 -5.7 68 68 SSE 5 7 30.16 1022 10 16 0.00 0.00

Powered by AerisWeather